ICE114 BGGH-BIKF

Flight info

Callsign ICE114
Flight time 1h 51m
Altitude 37000
Route EVULO1A EVULO DCT DEVNU DCT GOKIK DCT GIRUG GIRUG4K
Aircraft B38M/M-SDE1FGHILORVWXY/HB1

Departure

Time 2026-04-26 07:51
Airport Nuuk International Airport (BGGH)

Arrival

Time 2026-04-26 09:43
Airport Keflavik International Airport (BIKF)
Time Latitude Longitude Altitude Speed Heading
2026-04-26 07:06 64.18519 -51.67830 284 ft 0 kts 108°
2026-04-26 07:41 64.18523 -51.67854 284 ft 3 kts 108°
2026-04-26 07:42 64.18529 -51.67897 284 ft 2 kts 108°
2026-04-26 07:42 64.18533 -51.67934 289 ft 3 kts 83°
2026-04-26 07:42 64.18526 -51.67967 287 ft 3 kts 34°
2026-04-26 07:42 64.18509 -51.67984 288 ft 3 kts 18°
2026-04-26 07:43 64.18496 -51.67994 286 ft 0 kts 18°
2026-04-26 07:45 64.18497 -51.67993 286 ft 1 kts 18°
2026-04-26 07:45 64.18508 -51.67985 287 ft 3 kts 18°
2026-04-26 07:45 64.18530 -51.67968 289 ft 4 kts 18°
2026-04-26 07:45 64.18564 -51.67943 284 ft 6 kts 18°
2026-04-26 07:46 64.18595 -51.67921 284 ft 3 kts 18°
2026-04-26 07:46 64.18614 -51.67930 284 ft 3 kts 326°
2026-04-26 07:46 64.18628 -51.67983 284 ft 5 kts 288°
2026-04-26 07:46 64.18639 -51.68067 284 ft 6 kts 287°
2026-04-26 07:47 64.18653 -51.68175 288 ft 7 kts 285°
2026-04-26 07:47 64.18641 -51.68267 284 ft 6 kts 216°
2026-04-26 07:47 64.18598 -51.68300 285 ft 7 kts 196°
2026-04-26 07:47 64.18550 -51.68334 289 ft 7 kts 197°
2026-04-26 07:48 64.18498 -51.68372 286 ft 9 kts 198°
2026-04-26 07:48 64.18427 -51.68424 286 ft 12 kts 198°
2026-04-26 07:48 64.18341 -51.68487 284 ft 15 kts 198°
2026-04-26 07:48 64.18262 -51.68544 282 ft 7 kts 192°
2026-04-26 07:49 64.18229 -51.68535 282 ft 4 kts 167°
2026-04-26 07:49 64.18194 -51.68520 283 ft 5 kts 180°
2026-04-26 07:49 64.18165 -51.68531 282 ft 3 kts 194°
2026-04-26 07:50 64.18150 -51.68616 282 ft 3 kts 313°
2026-04-26 07:50 64.18161 -51.68619 282 ft 1 kts 12°
2026-04-26 07:50 64.18166 -51.68616 282 ft 0 kts 16°
2026-04-26 07:50 64.18166 -51.68615 282 ft 0 kts 16°
2026-04-26 07:51 64.18302 -51.68520 282 ft 59 kts 19°
2026-04-26 07:51 64.18938 -51.68053 284 ft 131 kts 18°
2026-04-26 07:51 64.19936 -51.67318 696 ft 160 kts 14°
2026-04-26 07:51 64.21024 -51.66670 1796 ft 163 kts 360°
2026-04-26 07:52 64.22179 -51.67194 2451 ft 180 kts 332°
2026-04-26 07:52 64.23122 -51.69206 3222 ft 192 kts 305°
2026-04-26 07:52 64.23590 -51.72132 4058 ft 207 kts 279°
2026-04-26 07:52 64.23333 -51.75466 4909 ft 219 kts 248°
2026-04-26 07:53 64.22292 -51.78030 5870 ft 228 kts 215°
2026-04-26 07:53 64.20690 -51.79082 6406 ft 260 kts 182°
2026-04-26 07:53 64.18856 -51.78519 7143 ft 272 kts 174°
2026-04-26 07:53 64.16916 -51.78082 7702 ft 289 kts 180°
2026-04-26 07:54 64.14853 -51.77740 8411 ft 302 kts 178°
2026-04-26 07:54 64.12831 -51.76215 9357 ft 315 kts 148°
2026-04-26 07:54 64.11350 -51.72583 10324 ft 316 kts 117°
2026-04-26 07:54 64.10739 -51.67706 10823 ft 326 kts 86°
2026-04-26 07:55 64.11197 -51.62732 11346 ft 326 kts 58°
2026-04-26 07:55 64.12264 -51.58059 11950 ft 339 kts 59°
2026-04-26 07:55 64.13249 -51.53044 12641 ft 352 kts 62°
2026-04-26 07:55 64.14220 -51.47804 13283 ft 362 kts 63°
2026-04-26 07:56 64.15146 -51.42695 13947 ft 369 kts 63°
2026-04-26 07:56 64.16120 -51.37210 14606 ft 374 kts 64°
2026-04-26 07:56 64.17101 -51.31653 15275 ft 379 kts 64°
2026-04-26 07:56 64.18069 -51.26141 15917 ft 382 kts 64°
2026-04-26 07:57 64.19065 -51.20439 16551 ft 387 kts 64°
2026-04-26 07:57 64.20069 -51.14686 17192 ft 391 kts 65°
2026-04-26 07:57 64.21083 -51.08852 17860 ft 395 kts 65°
2026-04-26 07:57 64.22104 -51.02971 18450 ft 399 kts 65°
2026-04-26 07:58 64.23136 -50.97002 18972 ft 403 kts 65°
2026-04-26 07:58 64.24173 -50.90997 19490 ft 406 kts 64°
2026-04-26 07:58 64.25212 -50.84953 20021 ft 408 kts 64°
2026-04-26 07:58 64.26257 -50.78861 20549 ft 411 kts 64°
2026-04-26 07:59 64.27313 -50.72691 21051 ft 415 kts 65°
2026-04-26 07:59 64.28367 -50.66498 21557 ft 418 kts 65°
2026-04-26 07:59 64.29431 -50.60236 22097 ft 420 kts 65°
2026-04-26 07:59 64.30497 -50.53942 22562 ft 424 kts 65°
2026-04-26 08:00 64.31568 -50.47603 23037 ft 426 kts 65°
2026-04-26 08:00 64.32644 -50.41206 23521 ft 429 kts 65°
2026-04-26 08:00 64.33724 -50.34768 23921 ft 432 kts 65°
2026-04-26 08:00 64.34808 -50.28284 24296 ft 434 kts 66°
2026-04-26 08:01 64.35891 -50.21787 24682 ft 435 kts 66°
2026-04-26 08:01 64.36980 -50.15235 25074 ft 438 kts 65°
2026-04-26 08:01 64.38073 -50.08653 25457 ft 440 kts 64°
2026-04-26 08:01 64.39450 -50.02411 25832 ft 437 kts 57°
2026-04-26 08:02 64.40616 -49.95837 26186 ft 446 kts 74°
2026-04-26 08:02 64.40965 -49.88693 26617 ft 451 kts 88°
2026-04-26 08:02 64.41215 -49.81437 26915 ft 453 kts 81°
2026-04-26 08:02 64.41670 -49.74205 27255 ft 456 kts 79°
2026-04-26 08:03 64.42223 -49.66983 27600 ft 458 kts 77°
2026-04-26 08:03 64.42830 -49.59728 27957 ft 460 kts 77°
2026-04-26 08:03 64.43460 -49.52450 28276 ft 463 kts 76°
2026-04-26 08:03 64.44104 -49.45130 28613 ft 465 kts 76°
2026-04-26 08:04 64.44754 -49.37786 28934 ft 467 kts 76°
2026-04-26 08:04 64.45406 -49.30392 29250 ft 470 kts 76°
2026-04-26 08:04 64.46059 -49.22959 29547 ft 472 kts 76°
2026-04-26 08:04 64.46711 -49.15476 29851 ft 474 kts 76°
2026-04-26 08:05 64.47354 -49.08060 30118 ft 476 kts 76°
2026-04-26 08:05 64.48012 -49.00417 30364 ft 479 kts 76°
2026-04-26 08:05 64.48652 -48.92942 30609 ft 480 kts 77°
2026-04-26 08:05 64.49298 -48.85338 30918 ft 480 kts 78°
2026-04-26 08:06 64.49941 -48.77723 31129 ft 483 kts 78°
2026-04-26 08:06 64.50584 -48.70057 31352 ft 485 kts 78°
2026-04-26 08:06 64.51225 -48.62366 31574 ft 487 kts 78°
2026-04-26 08:06 64.51866 -48.54628 31794 ft 489 kts 78°
2026-04-26 08:07 64.52504 -48.46861 32004 ft 491 kts 78°
2026-04-26 08:07 64.53141 -48.39063 32214 ft 492 kts 78°
2026-04-26 08:07 64.53776 -48.31225 32420 ft 494 kts 78°
2026-04-26 08:07 64.54409 -48.23375 32622 ft 496 kts 78°
2026-04-26 08:08 64.55041 -48.15460 32817 ft 498 kts 78°
2026-04-26 08:08 64.55671 -48.07526 33030 ft 500 kts 78°
2026-04-26 08:08 64.56297 -47.99584 33292 ft 500 kts 78°
2026-04-26 08:08 64.56919 -47.91630 33607 ft 500 kts 79°
2026-04-26 08:09 64.57536 -47.83676 33882 ft 499 kts 79°
2026-04-26 08:09 64.58149 -47.75724 34103 ft 499 kts 79°
2026-04-26 08:09 64.58758 -47.67762 34323 ft 499 kts 79°
2026-04-26 08:09 64.59361 -47.59817 34500 ft 498 kts 79°
2026-04-26 08:10 64.59960 -47.51869 34760 ft 497 kts 79°
2026-04-26 08:10 64.60546 -47.44043 34973 ft 497 kts 79°
2026-04-26 08:10 64.61133 -47.36122 35174 ft 496 kts 79°
2026-04-26 08:10 64.61718 -47.28183 35374 ft 496 kts 79°
2026-04-26 08:11 64.62296 -47.20276 35569 ft 496 kts 80°
2026-04-26 08:11 64.62872 -47.12341 35757 ft 496 kts 80°
2026-04-26 08:11 64.63442 -47.04409 35956 ft 496 kts 80°
2026-04-26 08:11 64.64010 -46.96472 36162 ft 495 kts 81°
2026-04-26 08:12 64.64570 -46.88547 36337 ft 495 kts 81°
2026-04-26 08:12 64.65129 -46.80605 36508 ft 496 kts 81°
2026-04-26 08:12 64.65682 -46.72665 36685 ft 495 kts 81°
2026-04-26 08:12 64.66230 -46.64731 36850 ft 495 kts 81°
2026-04-26 08:13 64.67315 -46.48853 36885 ft 495 kts 81°
2026-04-26 08:13 64.68380 -46.32993 36895 ft 495 kts 81°
2026-04-26 08:14 64.69430 -46.17094 36902 ft 495 kts 82°
2026-04-26 08:14 64.70461 -46.01203 36898 ft 495 kts 82°
2026-04-26 08:15 64.71477 -45.85281 36895 ft 495 kts 82°
2026-04-26 08:15 64.72468 -45.69463 36889 ft 495 kts 82°
2026-04-26 08:16 64.73451 -45.53500 36881 ft 495 kts 82°
2026-04-26 08:16 64.74415 -45.37555 36879 ft 495 kts 82°
2026-04-26 08:17 64.75363 -45.21571 36885 ft 495 kts 82°
2026-04-26 08:17 64.76292 -45.05611 36873 ft 495 kts 83°
2026-04-26 08:18 64.77205 -44.89623 36830 ft 494 kts 83°
2026-04-26 08:18 64.78099 -44.73659 36848 ft 493 kts 83°
2026-04-26 08:19 64.78974 -44.57707 36836 ft 493 kts 83°
2026-04-26 08:19 64.79828 -44.41837 36837 ft 493 kts 84°
2026-04-26 08:20 64.80669 -44.25854 36837 ft 493 kts 84°
2026-04-26 08:20 64.81492 -44.09892 36823 ft 493 kts 84°
2026-04-26 08:21 64.82299 -43.93899 36831 ft 492 kts 84°
2026-04-26 08:21 64.83087 -43.77945 36782 ft 491 kts 85°
2026-04-26 08:22 64.83856 -43.62000 36787 ft 491 kts 85°
2026-04-26 08:22 64.84487 -43.48629 36781 ft 491 kts 85°
2026-04-26 08:23 64.85226 -43.32659 36777 ft 491 kts 85°
2026-04-26 08:23 64.85941 -43.16805 36776 ft 491 kts 85°
2026-04-26 08:24 64.86646 -43.00810 36777 ft 491 kts 85°
2026-04-26 08:24 64.87332 -42.84839 36810 ft 490 kts 86°
2026-04-26 08:25 64.87999 -42.68909 36847 ft 490 kts 86°
2026-04-26 08:25 64.88649 -42.52953 36892 ft 490 kts 86°
2026-04-26 08:26 64.89282 -42.37000 36901 ft 490 kts 86°
2026-04-26 08:26 64.89898 -42.21034 36883 ft 489 kts 86°
2026-04-26 08:27 64.90496 -42.05092 36933 ft 488 kts 87°
2026-04-26 08:27 64.91076 -41.89167 36939 ft 487 kts 87°
2026-04-26 08:28 64.91638 -41.73266 36950 ft 487 kts 87°
2026-04-26 08:28 64.92180 -41.57457 36962 ft 487 kts 88°
2026-04-26 08:29 64.92708 -41.41536 36962 ft 487 kts 88°
2026-04-26 08:29 64.93220 -41.25614 36967 ft 487 kts 88°
2026-04-26 08:30 64.93714 -41.09689 36965 ft 487 kts 88°
2026-04-26 08:30 64.94191 -40.93758 36983 ft 487 kts 89°
2026-04-26 08:31 64.94649 -40.77885 36978 ft 483 kts 89°
2026-04-26 08:31 64.95089 -40.62071 36956 ft 482 kts 89°
2026-04-26 08:32 64.95512 -40.46269 36966 ft 483 kts 89°
2026-04-26 08:32 64.95917 -40.30452 36967 ft 483 kts 89°
2026-04-26 08:33 64.96306 -40.14644 36972 ft 482 kts 90°
2026-04-26 08:33 64.96679 -39.98840 36964 ft 482 kts 90°
2026-04-26 08:34 64.97034 -39.83018 36958 ft 482 kts 90°
2026-04-26 08:34 64.97370 -39.67306 36963 ft 482 kts 90°
2026-04-26 08:35 64.97692 -39.51514 36902 ft 481 kts 91°
2026-04-26 08:35 64.97996 -39.35735 36947 ft 481 kts 91°
2026-04-26 08:36 64.98284 -39.19978 36948 ft 480 kts 91°
2026-04-26 08:36 64.98555 -39.04208 36950 ft 480 kts 91°
2026-04-26 08:37 64.98809 -38.88418 36932 ft 480 kts 91°
2026-04-26 08:37 64.99047 -38.72632 36939 ft 481 kts 91°
2026-04-26 08:38 64.99268 -38.56841 36931 ft 480 kts 92°
2026-04-26 08:38 64.99472 -38.41052 36930 ft 481 kts 92°
2026-04-26 08:39 64.99660 -38.25284 36931 ft 480 kts 92°
2026-04-26 08:39 64.99831 -38.09483 36912 ft 480 kts 92°
2026-04-26 08:40 64.99985 -37.93739 36932 ft 479 kts 92°
2026-04-26 08:40 65.00122 -37.78001 36927 ft 478 kts 92°
2026-04-26 08:41 65.00243 -37.62283 36934 ft 478 kts 92°
2026-04-26 08:41 65.00346 -37.46655 36935 ft 478 kts 92°
2026-04-26 08:42 65.00435 -37.30938 36931 ft 478 kts 93°
2026-04-26 08:42 65.00511 -37.15238 36932 ft 478 kts 93°
2026-04-26 08:43 65.00574 -36.99523 36930 ft 478 kts 93°
2026-04-26 08:43 65.00621 -36.83809 36938 ft 478 kts 93°
2026-04-26 08:44 65.00653 -36.68123 36927 ft 475 kts 93°
2026-04-26 08:44 65.00670 -36.52506 36924 ft 474 kts 93°
2026-04-26 08:45 65.00672 -36.36897 36934 ft 474 kts 93°
2026-04-26 08:45 65.00660 -36.21414 36925 ft 474 kts 93°
2026-04-26 08:46 65.00632 -36.05826 36926 ft 474 kts 94°
2026-04-26 08:46 65.00582 -35.90245 36928 ft 474 kts 95°
2026-04-26 08:47 65.00030 -35.74798 36935 ft 472 kts 98°
2026-04-26 08:47 64.99553 -35.59328 36926 ft 472 kts 97°
2026-04-26 08:48 64.99098 -35.43815 36892 ft 472 kts 97°
2026-04-26 08:48 64.98635 -35.28386 36920 ft 470 kts 97°
2026-04-26 08:49 64.98156 -35.12963 36918 ft 470 kts 97°
2026-04-26 08:49 64.97662 -34.97579 36912 ft 470 kts 98°
2026-04-26 08:50 64.97151 -34.82181 36923 ft 470 kts 98°
2026-04-26 08:50 64.96629 -34.66910 36913 ft 470 kts 98°
2026-04-26 08:51 64.95811 -34.43857 36916 ft 470 kts 98°
2026-04-26 08:52 64.95247 -34.28511 36921 ft 470 kts 98°
2026-04-26 08:52 64.94666 -34.13173 36884 ft 469 kts 98°
2026-04-26 08:53 64.94070 -33.97847 36909 ft 469 kts 99°
2026-04-26 08:53 64.93460 -33.82541 36909 ft 468 kts 99°
2026-04-26 08:54 64.92834 -33.67264 36898 ft 468 kts 99°
2026-04-26 08:54 64.92194 -33.52019 36900 ft 467 kts 99°
2026-04-26 08:55 64.91537 -33.36774 36900 ft 467 kts 99°
2026-04-26 08:55 64.90866 -33.21539 36901 ft 467 kts 100°
2026-04-26 08:56 64.90180 -33.06332 36896 ft 467 kts 100°
2026-04-26 08:56 64.89477 -32.91121 36871 ft 467 kts 100°
2026-04-26 08:57 64.88765 -32.76040 36896 ft 466 kts 100°
2026-04-26 08:57 64.88033 -32.60862 36890 ft 466 kts 101°
2026-04-26 08:58 64.87286 -32.45719 36893 ft 466 kts 101°
2026-04-26 08:58 64.86524 -32.30586 36891 ft 466 kts 101°
2026-04-26 08:59 64.85747 -32.15450 36885 ft 466 kts 101°
2026-04-26 08:59 64.84955 -32.00351 36886 ft 466 kts 101°
2026-04-26 09:00 64.84148 -31.85254 36891 ft 466 kts 102°
2026-04-26 09:00 64.83324 -31.70151 36898 ft 466 kts 102°
2026-04-26 09:01 64.82487 -31.55075 36871 ft 464 kts 102°
2026-04-26 09:01 64.81636 -31.40059 36883 ft 464 kts 102°
2026-04-26 09:02 64.80777 -31.25157 36881 ft 463 kts 102°
2026-04-26 09:02 64.79898 -31.10178 36897 ft 464 kts 102°
2026-04-26 09:03 64.79003 -30.95206 36896 ft 463 kts 102°
2026-04-26 09:03 64.78093 -30.80227 36882 ft 463 kts 103°
2026-04-26 09:04 64.77168 -30.65282 36887 ft 463 kts 103°
2026-04-26 09:04 64.76230 -30.50352 36885 ft 463 kts 103°
2026-04-26 09:05 64.75277 -30.35449 36884 ft 462 kts 103°
2026-04-26 09:05 64.74309 -30.20558 36885 ft 462 kts 103°
2026-04-26 09:06 64.73326 -30.05670 36891 ft 462 kts 103°
2026-04-26 09:06 64.72328 -29.90802 36888 ft 462 kts 103°
2026-04-26 09:07 64.71317 -29.75961 36892 ft 462 kts 104°
2026-04-26 09:07 64.70290 -29.61113 36899 ft 462 kts 104°
2026-04-26 09:08 64.69256 -29.46402 36889 ft 461 kts 104°
2026-04-26 09:08 64.68203 -29.31622 36896 ft 461 kts 104°
2026-04-26 09:09 64.67128 -29.16776 36891 ft 461 kts 104°
2026-04-26 09:09 64.66047 -29.02045 36887 ft 459 kts 104°
2026-04-26 09:10 64.64998 -28.87947 36897 ft 459 kts 104°
2026-04-26 09:10 64.63892 -28.73297 36896 ft 459 kts 104°
2026-04-26 09:11 64.62771 -28.58639 36898 ft 459 kts 104°
2026-04-26 09:11 64.61830 -28.46498 36893 ft 458 kts 104°
2026-04-26 09:12 64.60490 -28.29432 36898 ft 458 kts 104°
2026-04-26 09:12 64.59526 -28.17319 36898 ft 458 kts 104°
2026-04-26 09:13 64.58354 -28.02770 36900 ft 458 kts 105°
2026-04-26 09:13 64.56984 -27.85969 36093 ft 451 kts 105°
2026-04-26 09:13 64.56587 -27.81134 35578 ft 453 kts 105°
2026-04-26 09:14 64.55992 -27.73931 34924 ft 452 kts 105°
2026-04-26 09:14 64.55402 -27.66814 34464 ft 447 kts 106°
2026-04-26 09:14 64.54815 -27.59775 34032 ft 441 kts 106°
2026-04-26 09:14 64.54230 -27.52800 33481 ft 437 kts 106°
2026-04-26 09:15 64.53647 -27.45890 32900 ft 433 kts 106°
2026-04-26 09:15 64.53068 -27.39065 32410 ft 428 kts 106°
2026-04-26 09:15 64.52493 -27.32323 31959 ft 424 kts 106°
2026-04-26 09:15 64.51922 -27.25656 31494 ft 420 kts 106°
2026-04-26 09:16 64.51350 -27.19033 31010 ft 417 kts 106°
2026-04-26 09:16 64.50780 -27.12451 30536 ft 414 kts 105°
2026-04-26 09:16 64.50193 -27.05954 30195 ft 405 kts 110°
2026-04-26 09:16 64.49232 -27.00039 29923 ft 393 kts 117°
2026-04-26 09:17 64.48174 -26.94070 29144 ft 397 kts 116°
2026-04-26 09:17 64.47145 -26.88136 28576 ft 396 kts 116°
2026-04-26 09:17 64.46127 -26.82245 28220 ft 390 kts 116°
2026-04-26 09:17 64.45125 -26.76444 27804 ft 386 kts 115°
2026-04-26 09:18 64.44144 -26.70778 27398 ft 382 kts 115°
2026-04-26 09:18 64.43157 -26.65092 27003 ft 378 kts 115°
2026-04-26 09:18 64.42178 -26.59466 26599 ft 375 kts 115°
2026-04-26 09:18 64.41206 -26.53894 26209 ft 372 kts 115°
2026-04-26 09:19 64.40238 -26.48368 25831 ft 369 kts 115°
2026-04-26 09:19 64.39278 -26.42898 25443 ft 367 kts 115°
2026-04-26 09:19 64.38321 -26.37462 25061 ft 364 kts 115°
2026-04-26 09:19 64.37367 -26.32058 24692 ft 361 kts 115°
2026-04-26 09:20 64.36421 -26.26712 24326 ft 359 kts 115°
2026-04-26 09:20 64.35475 -26.21382 23957 ft 357 kts 115°
2026-04-26 09:20 64.34532 -26.16086 23599 ft 355 kts 115°
2026-04-26 09:20 64.33592 -26.10816 23180 ft 354 kts 115°
2026-04-26 09:21 64.32660 -26.05609 22790 ft 351 kts 115°
2026-04-26 09:21 64.31731 -26.00434 22437 ft 347 kts 115°
2026-04-26 09:21 64.30812 -25.95323 22088 ft 344 kts 115°
2026-04-26 09:21 64.29897 -25.90249 21740 ft 340 kts 115°
2026-04-26 09:22 64.28991 -25.85240 21388 ft 337 kts 115°
2026-04-26 09:22 64.28091 -25.80277 21055 ft 334 kts 115°
2026-04-26 09:22 64.27197 -25.75358 20724 ft 331 kts 115°
2026-04-26 09:22 64.26313 -25.70506 20395 ft 328 kts 115°
2026-04-26 09:23 64.25445 -25.65753 20078 ft 325 kts 115°
2026-04-26 09:23 64.24572 -25.60982 19744 ft 322 kts 115°
2026-04-26 09:23 64.23705 -25.56260 19416 ft 320 kts 115°
2026-04-26 09:23 64.22841 -25.51562 19102 ft 317 kts 115°
2026-04-26 09:24 64.21984 -25.46911 18783 ft 316 kts 115°
2026-04-26 09:24 64.21123 -25.42256 18462 ft 319 kts 115°
2026-04-26 09:24 64.20248 -25.37529 18117 ft 323 kts 115°
2026-04-26 09:24 64.19368 -25.32788 17759 ft 323 kts 115°
2026-04-26 09:25 64.18487 -25.28057 17429 ft 321 kts 116°
2026-04-26 09:25 64.17611 -25.23363 17106 ft 318 kts 116°
2026-04-26 09:25 64.16746 -25.18738 16795 ft 314 kts 116°
2026-04-26 09:25 64.15889 -25.14164 16480 ft 311 kts 116°
2026-04-26 09:26 64.15037 -25.09630 16162 ft 307 kts 116°
2026-04-26 09:26 64.14197 -25.05164 15849 ft 304 kts 116°
2026-04-26 09:26 64.13361 -25.00725 15543 ft 302 kts 116°
2026-04-26 09:26 64.12532 -24.96337 15243 ft 299 kts 116°
2026-04-26 09:27 64.11711 -24.91994 14931 ft 296 kts 115°
2026-04-26 09:27 64.10925 -24.87667 14625 ft 294 kts 109°
2026-04-26 09:27 64.10531 -24.83055 14290 ft 295 kts 101°
2026-04-26 09:27 64.10225 -24.78444 13996 ft 292 kts 101°
2026-04-26 09:28 64.09916 -24.73872 13699 ft 290 kts 101°
2026-04-26 09:28 64.09608 -24.69336 13361 ft 288 kts 101°
2026-04-26 09:28 64.09300 -24.64841 13050 ft 285 kts 101°
2026-04-26 09:28 64.08991 -24.60354 12759 ft 288 kts 101°
2026-04-26 09:29 64.08676 -24.55795 12462 ft 293 kts 101°
2026-04-26 09:29 64.08356 -24.51188 12156 ft 294 kts 102°
2026-04-26 09:29 64.08035 -24.46582 11855 ft 294 kts 101°
2026-04-26 09:29 64.07715 -24.42026 11537 ft 294 kts 102°
2026-04-26 09:30 64.07386 -24.37358 11177 ft 294 kts 102°
2026-04-26 09:30 64.07061 -24.32778 10884 ft 291 kts 102°
2026-04-26 09:30 64.06738 -24.28242 10592 ft 288 kts 102°
2026-04-26 09:30 64.06417 -24.23751 10304 ft 285 kts 102°
2026-04-26 09:31 64.06100 -24.19338 10126 ft 278 kts 102°
2026-04-26 09:31 64.05792 -24.15056 9985 ft 270 kts 102°
2026-04-26 09:31 64.05486 -24.10850 9711 ft 267 kts 102°
2026-04-26 09:31 64.05184 -24.06694 9394 ft 265 kts 102°
2026-04-26 09:32 64.04882 -24.02557 9095 ft 263 kts 102°
2026-04-26 09:32 64.04580 -23.98456 8810 ft 260 kts 103°
2026-04-26 09:32 64.04286 -23.94454 8541 ft 257 kts 103°
2026-04-26 09:32 64.03990 -23.90444 8270 ft 255 kts 103°
2026-04-26 09:33 64.03695 -23.86483 8002 ft 252 kts 102°
2026-04-26 09:33 64.03400 -23.82524 7732 ft 256 kts 102°
2026-04-26 09:33 64.03098 -23.78496 7479 ft 261 kts 102°
2026-04-26 09:33 64.02790 -23.74397 7192 ft 263 kts 103°
2026-04-26 09:34 64.02481 -23.70288 6904 ft 263 kts 103°
2026-04-26 09:34 64.02171 -23.66188 6635 ft 262 kts 103°
2026-04-26 09:34 64.01859 -23.62099 6340 ft 262 kts 103°
2026-04-26 09:34 64.01548 -23.58020 6039 ft 261 kts 103°
2026-04-26 09:35 64.01237 -23.53967 5747 ft 259 kts 103°
2026-04-26 09:35 64.00928 -23.49936 5477 ft 256 kts 103°
2026-04-26 09:35 64.00620 -23.45949 5201 ft 254 kts 103°
2026-04-26 09:35 64.00314 -23.42003 4925 ft 252 kts 103°
2026-04-26 09:36 64.00009 -23.38076 4653 ft 250 kts 103°
2026-04-26 09:36 63.99706 -23.34188 4358 ft 248 kts 103°
2026-04-26 09:36 63.99336 -23.30404 4160 ft 241 kts 108°
2026-04-26 09:36 63.98995 -23.26733 4055 ft 233 kts 103°
2026-04-26 09:37 63.98791 -23.23123 3947 ft 225 kts 100°
2026-04-26 09:37 63.98677 -23.19655 3877 ft 215 kts 98°
2026-04-26 09:37 63.98614 -23.16307 3751 ft 208 kts 97°
2026-04-26 09:37 63.98580 -23.13062 3594 ft 203 kts 96°
2026-04-26 09:38 63.98562 -23.09896 3496 ft 195 kts 96°
2026-04-26 09:38 63.98550 -23.06911 3373 ft 184 kts 96°
2026-04-26 09:38 63.98542 -23.04036 3213 ft 178 kts 96°
2026-04-26 09:38 63.98536 -23.01233 3090 ft 177 kts 96°
2026-04-26 09:39 63.98532 -22.98424 2945 ft 177 kts 96°
2026-04-26 09:39 63.98529 -22.95628 2719 ft 176 kts 96°
2026-04-26 09:39 63.98526 -22.92891 2459 ft 172 kts 96°
2026-04-26 09:39 63.98525 -22.90239 2229 ft 163 kts 97°
2026-04-26 09:40 63.98522 -22.87668 2202 ft 162 kts 97°
2026-04-26 09:40 63.98520 -22.85091 1946 ft 158 kts 97°
2026-04-26 09:40 63.98518 -22.82658 1721 ft 151 kts 97°
2026-04-26 09:40 63.98517 -22.80329 1506 ft 143 kts 97°
2026-04-26 09:41 63.98515 -22.78108 1292 ft 139 kts 97°
2026-04-26 09:41 63.98512 -22.75916 1114 ft 138 kts 96°
2026-04-26 09:41 63.98512 -22.73763 952 ft 133 kts 97°
2026-04-26 09:41 63.98510 -22.71663 694 ft 133 kts 95°
2026-04-26 09:42 63.98512 -22.69580 499 ft 131 kts 95°
2026-04-26 09:42 63.98513 -22.67490 312 ft 132 kts 96°
2026-04-26 09:42 63.98506 -22.65376 146 ft 133 kts 94°
2026-04-26 09:42 63.98502 -22.63536 139 ft 89 kts 89°
2026-04-26 09:43 63.98502 -22.62627 145 ft 41 kts 88°
2026-04-26 09:43 63.98504 -22.61979 156 ft 39 kts 90°
2026-04-26 09:43 63.98540 -22.61443 161 ft 25 kts 67°
2026-04-26 09:43 63.98589 -22.61232 163 ft 5 kts 59°
2026-04-26 09:44 63.98608 -22.61163 166 ft 5 kts 49°
2026-04-26 09:44 63.98642 -22.61126 165 ft 6 kts 12°
2026-04-26 09:44 63.98695 -22.61123 164 ft 10 kts 359°
2026-04-26 09:44 63.98771 -22.61124 164 ft 12 kts
2026-04-26 09:45 63.98841 -22.61126 165 ft 9 kts 358°
2026-04-26 09:45 63.98912 -22.61125 164 ft 12 kts
2026-04-26 09:45 63.99000 -22.61123 165 ft 13 kts
2026-04-26 09:45 63.99086 -22.61123 163 ft 8 kts
2026-04-26 09:46 63.99135 -22.61123 161 ft 5 kts
2026-04-26 09:46 63.99167 -22.61157 161 ft 5 kts 303°
2026-04-26 09:46 63.99174 -22.61269 158 ft 10 kts 269°
2026-04-26 09:46 63.99174 -22.61472 154 ft 14 kts 270°
2026-04-26 09:47 63.99174 -22.61715 148 ft 17 kts 270°
2026-04-26 09:47 63.99174 -22.61983 144 ft 19 kts 270°
2026-04-26 09:47 63.99174 -22.62200 144 ft 10 kts 270°
2026-04-26 09:47 63.99173 -22.62330 144 ft 8 kts 270°
2026-04-26 09:48 63.99174 -22.62426 144 ft 3 kts 283°
2026-04-26 09:48 63.99194 -22.62451 144 ft 4 kts 356°
2026-04-26 09:48 63.99228 -22.62452 144 ft 5 kts 359°
2026-04-26 09:48 63.99253 -22.62452 144 ft 3 kts
2026-04-26 09:49 63.99272 -22.62452 144 ft 3 kts
2026-04-26 09:49 63.99277 -22.62452 144 ft 0 kts